M I D A S
Marine Information and Data Acquisition System
Tripno 1127 of the Zeeleeuw from 2006-06-19 06:36:06 to 2006-06-19 17:32:43
Back to CruiseResearch ActivitiesStationsMapUnderway DataData graphs

EquipmentUnitsComments
TimeDGPSUTC
LatitudeDGPSDM.mWGS84
LongitudeDGPSDM.mWGS84
SpeedMeteo Stationm/sRelative wind speed
DirectionMeteo StationdegRelative wind direction
TemperatureMeteo Stationdeg CelciusAir temperature
PressureMeteo StationPaAtmospheric pressure
HumidityMeteo Station%Relative humidity
Missing or incorrect values are displayed as -999
Metereological data collected by the RV Zeeleeuw from 2006-06-19 06:36:46 to 2006-06-19 17:43:01
                                                                                    Next 1000 lines
Time Latitude Longitude Speed Direction Temperature Pressure Humidity
2006-06-19 06:36:56 51°13.602 2°56.098 7 20 17.9 101010 54
2006-06-19 06:37:02 51°13.602 2°56.096 8.2 41 17.9 101010 54
2006-06-19 06:37:06 51°13.602 2°56.094 6.6 44 17.9 101020 54
2006-06-19 06:37:11 51°13.603 2°56.091 4.9 37 17.9 101020 54
2006-06-19 06:37:16 51°13.605 2°56.086 5.2 41 17.9 101010 54
2006-06-19 06:37:22 51°13.606 2°56.08 6.5 40 17.9 101010 54
2006-06-19 06:37:27 51°13.608 2°56.075 6.3 20 17.9 101020 54
2006-06-19 06:37:32 51°13.609 2°56.069 5.9 41 17.9 101020 54
2006-06-19 06:37:37 51°13.611 2°56.062 5.1 44 17.9 101010 54
2006-06-19 06:37:42 51°13.613 2°56.056 6 45 17.9 101010 54
2006-06-19 06:37:47 51°13.615 2°56.049 5.4 24 17.9 101010 54
2006-06-19 06:37:52 51°13.616 2°56.042 7 57 17.9 101010 54
2006-06-19 06:37:57 51°13.618 2°56.034 5.9 24 17.9 101010 54
2006-06-19 06:38:02 51°13.62 2°56.026 5.7 45 17.9 101010 54
2006-06-19 06:38:07 51°13.622 2°56.018 6 21 17.8 101010 54
2006-06-19 06:38:12 51°13.624 2°56.01 5.3 51 17.8 101010 54
2006-06-19 06:38:17 51°13.626 2°56.002 4.5 43 17.9 101010 55
2006-06-19 06:38:22 51°13.628 2°55.994 5.5 57 17.9 101010 55
2006-06-19 06:38:26 51°13.629 2°55.988 6.1 21 17.9 101010 55
2006-06-19 06:38:32 51°13.632 2°55.979 5.5 52 17.9 101010 55
2006-06-19 06:38:37 51°13.635 2°55.971 6.5 44 17.8 101010 55
2006-06-19 06:38:42 51°13.637 2°55.962 5 44 17.8 101010 55
2006-06-19 06:38:47 51°13.64 2°55.954 4.6 20 17.9 101010 55
2006-06-19 06:38:52 51°13.642 2°55.946 6.4 58 17.9 101010 55
2006-06-19 06:38:57 51°13.645 2°55.937 6.4 27 17.9 101010 55
2006-06-19 06:39:02 51°13.647 2°55.929 6 59 17.9 101010 55
2006-06-19 06:39:07 51°13.65 2°55.92 5.9 42 17.9 101010 55
2006-06-19 06:39:12 51°13.652 2°55.911 6.9 51 17.9 101010 55
2006-06-19 06:39:17 51°13.654 2°55.902 5.2 39 17.9 101010 54
2006-06-19 06:39:22 51°13.657 2°55.893 5.3 55 17.9 101010 54
2006-06-19 06:39:27 51°13.659 2°55.884 6.2 27 17.9 101010 55
2006-06-19 06:39:32 51°13.662 2°55.875 5.6 57 17.9 101010 55
2006-06-19 06:39:37 51°13.665 2°55.866 4.5 32 17.9 101010 54
2006-06-19 06:39:42 51°13.668 2°55.857 5.5 34 17.9 101010 54
2006-06-19 06:39:47 51°13.671 2°55.848 5.4 42 17.9 101010 55
2006-06-19 06:39:52 51°13.674 2°55.839 5.1 23 17.9 101010 55
2006-06-19 06:39:57 51°13.677 2°55.83 6 21 17.9 101010 54
2006-06-19 06:40:02 51°13.681 2°55.821 7.5 35 17.9 101010 54
2006-06-19 06:40:07 51°13.684 2°55.812 7.5 32 18 101010 55
2006-06-19 06:40:12 51°13.687 2°55.803 6.4 32 18 101010 55
2006-06-19 06:40:17 51°13.691 2°55.795 6.3 30 17.9 101010 55
2006-06-19 06:40:22 51°13.694 2°55.786 4.7 44 17.9 101010 55
2006-06-19 06:40:26 51°13.697 2°55.78 3.8 35 18 101020 54
2006-06-19 06:40:32 51°13.701 2°55.77 3.7 25 18 101020 54
2006-06-19 06:40:37 51°13.704 2°55.763 4 43 18 101010 55
2006-06-19 06:40:42 51°13.706 2°55.755 3.2 57 18 101010 55
2006-06-19 06:40:46 51°13.708 2°55.75 4.5 27 18 101010 54
2006-06-19 06:40:52 51°13.711 2°55.742 5.2 51 18 101010 54
2006-06-19 06:40:57 51°13.713 2°55.736 5.2 26 18 101010 55
2006-06-19 06:41:02 51°13.714 2°55.731 5.7 57 18 101010 55
2006-06-19 06:41:06 51°13.715 2°55.728 4.7 45 18 101020 54
2006-06-19 06:41:10 51°13.716 2°55.725 5 59 18 101020 54
2006-06-19 06:41:16 51°13.717 2°55.722 3.2 28 18 101020 54
2006-06-19 06:41:22 51°13.717 2°55.721 3.9 51 18 101020 54
2006-06-19 06:41:26 51°13.718 2°55.72 5.1 28 18 101020 54
2006-06-19 06:41:31 51°13.718 2°55.72 5.9 43 18 101020 54
2006-06-19 06:41:36 51°13.719 2°55.72 6.1 25 18 101020 54
2006-06-19 06:41:41 51°13.72 2°55.721 6.4 55 18 101020 54
2006-06-19 06:41:46 51°13.72 2°55.722 4.9 29 18 101020 54
2006-06-19 06:41:52 51°13.721 2°55.723 5.1 56 18 101020 54
2006-06-19 06:41:56 51°13.722 2°55.724 4.4 42 18 101020 54
2006-06-19 06:42:00 51°13.723 2°55.725 4 53 18 101020 54
2006-06-19 06:42:06 51°13.724 2°55.726 5.2 28 18 101030 53
2006-06-19 06:42:09 51°13.725 2°55.726 3.3 51 18 101030 53
2006-06-19 06:42:16 51°13.725 2°55.727 4.2 19 18 101020 53
2006-06-19 06:42:21 51°13.725 2°55.726 5.1 53 18 101020 53
2006-06-19 06:42:26 51°13.725 2°55.726 5.3 25 18 101020 54
2006-06-19 06:42:32 51°13.724 2°55.726 5.1 55 18 101020 54
2006-06-19 06:42:36 51°13.723 2°55.725 5.2 29 18 101020 53
2006-06-19 06:42:41 51°13.722 2°55.724 5.5 57 18 101020 53
2006-06-19 06:42:46 51°13.721 2°55.723 4.6 20 18 101020 53
2006-06-19 06:42:51 51°13.719 2°55.721 4.8 56 18 101020 53
2006-06-19 06:42:57 51°13.716 2°55.719 7 19 18.1 101030 54
2006-06-19 06:43:02 51°13.715 2°55.718 6.9 57 18.1 101030 54
2006-06-19 06:43:07 51°13.714 2°55.717 7.1 24 18.1 101020 54
2006-06-19 06:43:12 51°13.714 2°55.716 7.2 44 18.1 101020 54
2006-06-19 06:43:17 51°13.715 2°55.717 4.5 24 18.1 101020 53
2006-06-19 06:43:22 51°13.717 2°55.716 2.7 57 18.1 101020 53
2006-06-19 06:43:26 51°13.719 2°55.717 4.4 269 18.1 101030 53
2006-06-19 06:43:32 51°13.724 2°55.716 5.9 307 18.1 101030 53
2006-06-19 06:43:37 51°13.729 2°55.715 6.3 24 18.1 101030 53
2006-06-19 06:43:42 51°13.734 2°55.713 6.8 307 18.1 101030 53
2006-06-19 06:43:46 51°13.74 2°55.71 7.9 252 18.1 101020 53
2006-06-19 06:43:50 51°13.745 2°55.707 7.3 306 18.1 101020 53
2006-06-19 06:43:56 51°13.754 2°55.7 7.2 23 18.1 101020 53
2006-06-19 06:44:01 51°13.762 2°55.694 7.6 303 18.1 101020 53
2006-06-19 06:44:06 51°13.77 2°55.688 6.3 26 18.1 101020 53
2006-06-19 06:44:12 51°13.782 2°55.679 6.1 308 18.1 101020 53
2006-06-19 06:44:16 51°13.789 2°55.674 5.8 22 18.1 101020 53
2006-06-19 06:44:21 51°13.799 2°55.666 4.8 302 18.1 101020 53
2006-06-19 06:44:26 51°13.809 2°55.658 6 29 18.1 101020 53
2006-06-19 06:44:32 51°13.821 2°55.648 4.7 330 18.1 101020 53
2006-06-19 06:44:36 51°13.83 2°55.641 3.7 323 18.1 101020 53
2006-06-19 06:44:40 51°13.838 2°55.634 5.3 327 18.1 101020 53
2006-06-19 06:44:46 51°13.851 2°55.625 5 323 18.1 101020 54
2006-06-19 06:44:52 51°13.864 2°55.614 7 304 18.1 101020 54
2006-06-19 06:44:56 51°13.873 2°55.608 7.8 25 18.1 101020 54
2006-06-19 06:45:02 51°13.885 2°55.598 6 302 18.1 101020 54
2006-06-19 06:45:06 51°13.894 2°55.591 6.3 22 18.1 101020 54
2006-06-19 06:45:10 51°13.902 2°55.584 7 303 18.1 101020 54
2006-06-19 06:45:16 51°13.915 2°55.574 4.8 319 18.1 101020 54
2006-06-19 06:45:21 51°13.926 2°55.567 6.4 334 18.1 101020 54
2006-06-19 06:45:26 51°13.936 2°55.56 5.9 19 18.1 101000 54
2006-06-19 06:45:31 51°13.947 2°55.553 7.4 310 18.1 101000 54
2006-06-19 06:45:36 51°13.958 2°55.547 7.3 18 18.1 101020 53
2006-06-19 06:45:41 51°13.969 2°55.54 6 310 18.1 101020 53
2006-06-19 06:45:46 51°13.98 2°55.533 4.8 322 18.1 101020 54
2006-06-19 06:45:49 51°13.987 2°55.529 7.8 304 18.1 101020 54
2006-06-19 06:45:56 51°14.002 2°55.518 6.4 22 18.2 101020 54
2006-06-19 06:46:01 51°14.012 2°55.511 5.2 302 18.2 101020 54
2006-06-19 06:46:06 51°14.022 2°55.503 7.2 22 18.1 101010 54
2006-06-19 06:46:10 51°14.03 2°55.498 7.2 300 18.1 101010 54
2006-06-19 06:46:16 51°14.041 2°55.489 8.1 26 18.1 101020 54
2006-06-19 06:46:21 51°14.051 2°55.482 6.5 309 18.1 101020 54
2006-06-19 06:46:26 51°14.06 2°55.476 6 22 18.2 101010 54
2006-06-19 06:46:32 51°14.071 2°55.468 6 301 18.2 101010 54
2006-06-19 06:46:36 51°14.079 2°55.463 6.4 24 18.1 101020 54
2006-06-19 06:46:41 51°14.088 2°55.457 6.9 301 18.1 101020 54
2006-06-19 06:46:46 51°14.098 2°55.45 6.1 26 18.2 101020 54
2006-06-19 06:46:52 51°14.109 2°55.442 4.6 309 18.2 101020 54
2006-06-19 06:46:56 51°14.117 2°55.436 5.4 27 18.2 101020 54
2006-06-19 06:47:01 51°14.127 2°55.428 5.5 304 18.2 101020 54
2006-06-19 06:47:06 51°14.137 2°55.42 7.1 29 18.2 101020 54
2006-06-19 06:47:12 51°14.149 2°55.411 6.9 310 18.2 101020 54
2006-06-19 06:47:16 51°14.157 2°55.404 6.9 18 18.2 101020 55
2006-06-19 06:47:21 51°14.168 2°55.396 4 303 18.2 101020 55
2006-06-19 06:47:26 51°14.178 2°55.387 7 316 18.2 101020 55
2006-06-19 06:47:29 51°14.184 2°55.382 7.8 309 18.2 101020 55
2006-06-19 06:47:37 51°14.199 2°55.365 10.5 25 18.2 101020 55
2006-06-19 06:47:42 51°14.209 2°55.355 10.5 305 18.2 101020 55
2006-06-19 06:47:46 51°14.216 2°55.346 9.3 27 18.2 101020 55
2006-06-19 06:47:52 51°14.227 2°55.332 10.1 303 18.2 101020 55
2006-06-19 06:47:56 51°14.235 2°55.322 10.8 242 18.2 101020 54
2006-06-19 06:48:02 51°14.245 2°55.307 11.1 307 18.2 101020 54
2006-06-19 06:48:06 51°14.252 2°55.297 8.2 26 18.2 101010 54
2006-06-19 06:48:12 51°14.262 2°55.28 12 308 18.2 101010 54
2006-06-19 06:48:16 51°14.269 2°55.269 13.2 23 18.2 101010 54
2006-06-19 06:48:21 51°14.277 2°55.254 12.7 307 18.2 101010 54
2006-06-19 06:48:26 51°14.286 2°55.24 12.6 26 18.2 101000 55
2006-06-19 06:48:32 51°14.296 2°55.221 12.6 305 18.2 101000 55
2006-06-19 06:48:36 51°14.303 2°55.209 12.2 27 18.2 101010 56
2006-06-19 06:48:41 51°14.311 2°55.192 12.9 304 18.2 101010 56
2006-06-19 06:48:46 51°14.319 2°55.175 12.6 26 18.2 100990 57
2006-06-19 06:48:51 51°14.327 2°55.158 8.6 309 18.2 100990 57
2006-06-19 06:48:56 51°14.335 2°55.14 11 21 18.1 100990 57
2006-06-19 06:49:02 51°14.345 2°55.119 11.8 300 18.1 100990 57
2006-06-19 06:49:06 51°14.351 2°55.104 13.6 26 18.1 101000 57
2006-06-19 06:49:12 51°14.361 2°55.082 14.6 307 18.1 101000 57
2006-06-19 06:49:16 51°14.367 2°55.067 13.6 24 18.1 100990 57
2006-06-19 06:49:21 51°14.375 2°55.048 12.4 306 18.1 100990 57
2006-06-19 06:49:26 51°14.382 2°55.029 12.5 27 18 101000 57
2006-06-19 06:49:32 51°14.392 2°55.007 11.6 310 18 101000 57
2006-06-19 06:49:36 51°14.399 2°54.993 12 21 17.9 100990 56
2006-06-19 06:49:41 51°14.408 2°54.975 11 308 17.9 100990 56
2006-06-19 06:49:46 51°14.417 2°54.958 11.7 23 18 100980 58
2006-06-19 06:49:51 51°14.426 2°54.941 12.4 303 18 100980 58
2006-06-19 06:49:56 51°14.435 2°54.924 12.3 23 17.9 100990 59
2006-06-19 06:50:01 51°14.444 2°54.907 11.5 309 17.9 100990 59
2006-06-19 06:50:06 51°14.453 2°54.89 13.3 22 17.9 100990 60
2006-06-19 06:50:11 51°14.462 2°54.872 12.7 305 17.9 100990 60
2006-06-19 06:50:15 51°14.468 2°54.858 13.9 20 17.9 100980 59
2006-06-19 06:50:22 51°14.479 2°54.831 12.4 303 17.9 100980 59
2006-06-19 06:50:26 51°14.485 2°54.816 13.8 27 17.9 100990 60
2006-06-19 06:50:30 51°14.491 2°54.799 13.3 303 17.9 100990 60
2006-06-19 06:50:36 51°14.5 2°54.775 13.5 29 17.8 100980 59
2006-06-19 06:50:42 51°14.508 2°54.749 12.8 305 17.8 100980 59
2006-06-19 06:50:46 51°14.514 2°54.732 12.9 25 17.8 100980 58
2006-06-19 06:50:51 51°14.521 2°54.71 13.4 308 17.8 100980 58
2006-06-19 06:50:56 51°14.528 2°54.687 13 22 17.8 100980 58
2006-06-19 06:51:01 51°14.534 2°54.665 12.5 305 17.8 100980 58
2006-06-19 06:51:06 51°14.541 2°54.642 13.8 315 17.7 100980 59
2006-06-19 06:51:12 51°14.549 2°54.614 14.1 303 17.7 100980 59
2006-06-19 06:51:16 51°14.554 2°54.596 13.8 26 17.7 100990 60
2006-06-19 06:51:21 51°14.562 2°54.573 13.4 304 17.7 100990 60
2006-06-19 06:51:26 51°14.569 2°54.55 14.6 23 17.7 100980 61
2006-06-19 06:51:31 51°14.576 2°54.527 13.6 306 17.7 100980 61
2006-06-19 06:51:36 51°14.584 2°54.505 13.9 21 17.7 100990 59
2006-06-19 06:51:41 51°14.591 2°54.482 12.4 303 17.7 100990 59
2006-06-19 06:51:46 51°14.598 2°54.459 12.7 25 17.6 100980 59
2006-06-19 06:51:52 51°14.606 2°54.432 13.9 306 17.6 100980 59
2006-06-19 06:51:56 51°14.611 2°54.414 14.6 20 17.6 100980 59
2006-06-19 06:52:00 51°14.617 2°54.396 14.3 301 17.6 100980 59
2006-06-19 06:52:06 51°14.626 2°54.369 13.6 22 17.6 100980 61
2006-06-19 06:52:09 51°14.63 2°54.356 12.7 305 17.6 100980 61
2006-06-19 06:52:16 51°14.641 2°54.325 12.6 24 17.6 100980 60
2006-06-19 06:52:22 51°14.65 2°54.298 12.1 308 17.6 100980 60
2006-06-19 06:52:26 51°14.656 2°54.28 13.6 28 17.6 100980 60
2006-06-19 06:52:30 51°14.662 2°54.262 13.4 304 17.6 100980 60
2006-06-19 06:52:36 51°14.671 2°54.235 14 25 17.6 100980 62
2006-06-19 06:52:42 51°14.68 2°54.208 13.8 307 17.6 100980 62
2006-06-19 06:52:45 51°14.684 2°54.194 13.9 20 17.6 100980 61
2006-06-19 06:52:52 51°14.694 2°54.162 13.9 307 17.6 100980 61
2006-06-19 06:52:56 51°14.7 2°54.144 12.9 21 17.6 100980 62
2006-06-19 06:53:01 51°14.708 2°54.12 12.9 306 17.6 100980 62
2006-06-19 06:53:06 51°14.715 2°54.098 12.5 20 17.5 100980 61
2006-06-19 06:53:11 51°14.723 2°54.075 13.9 306 17.5 100980 61
2006-06-19 06:53:16 51°14.731 2°54.052 12.7 27 17.5 100990 61
2006-06-19 06:53:21 51°14.739 2°54.03 13 302 17.5 100990 61
2006-06-19 06:53:26 51°14.747 2°54.007 13.9 26 17.5 100990 62
2006-06-19 06:53:32 51°14.756 2°53.98 14.7 302 17.5 100990 62
2006-06-19 06:53:36 51°14.762 2°53.962 13.8 22 17.5 100980 62
2006-06-19 06:53:42 51°14.77 2°53.935 14.5 308 17.5 100980 62
2006-06-19 06:53:46 51°14.775 2°53.916 14 23 17.5 100990 62
2006-06-19 06:53:51 51°14.782 2°53.893 13.8 305 17.5 100990 62
2006-06-19 06:53:56 51°14.789 2°53.87 14 21 17.5 100990 60
2006-06-19 06:54:01 51°14.795 2°53.846 14.3 310 17.5 100990 60
2006-06-19 06:54:06 51°14.801 2°53.823 13.6 24 17.5 100980 60
2006-06-19 06:54:12 51°14.808 2°53.794 13.4 303 17.5 100980 60
2006-06-19 06:54:16 51°14.813 2°53.775 14.9 26 17.4 100980 61
2006-06-19 06:54:22 51°14.819 2°53.746 15.5 282 17.4 100980 61
2006-06-19 06:54:25 51°14.823 2°53.732 14.3 317 17.5 100980 61
2006-06-19 06:54:30 51°14.828 2°53.708 13.9 302 17.5 100980 61
2006-06-19 06:54:36 51°14.835 2°53.679 14.6 315 17.4 100980 60
2006-06-19 06:54:42 51°14.842 2°53.65 14.4 306 17.4 100980 60
2006-06-19 06:54:46 51°14.846 2°53.631 14.1 25 17.4 100980 59
2006-06-19 06:54:50 51°14.851 2°53.612 12.5 309 17.4 100980 59
2006-06-19 06:54:56 51°14.858 2°53.583 13.6 319 17.4 100980 60
2006-06-19 06:55:02 51°14.865 2°53.554 14.6 307 17.4 100980 60
2006-06-19 06:55:06 51°14.869 2°53.535 14.9 316 17.4 100980 60
2006-06-19 06:55:09 51°14.872 2°53.52 14.3 303 17.4 100980 60
2006-06-19 06:55:16 51°14.879 2°53.487 15.2 316 17.4 100980 62
2006-06-19 06:55:22 51°14.884 2°53.457 15.8 306 17.4 100980 62
2006-06-19 06:55:26 51°14.888 2°53.438 14.9 25 17.4 100990 61
2006-06-19 06:55:32 51°14.893 2°53.409 15.3 306 17.4 100990 61
2006-06-19 06:55:36 51°14.897 2°53.389 14.5 24 17.4 100980 61
2006-06-19 06:55:41 51°14.902 2°53.365 14.1 305 17.4 100980 61
2006-06-19 06:55:46 51°14.906 2°53.34 13.1 317 17.4 100980 60
2006-06-19 06:55:52 51°14.911 2°53.311 14.4 304 17.4 100980 60
2006-06-19 06:55:56 51°14.914 2°53.291 14 317 17.4 100980 59
2006-06-19 06:56:01 51°14.918 2°53.266 14.2 301 17.4 100980 59
2006-06-19 06:56:06 51°14.921 2°53.241 14.4 319 17.4 100980 62
2006-06-19 06:56:12 51°14.925 2°53.211 15.3 303 17.4 100980 62
2006-06-19 06:56:16 51°14.928 2°53.192 14.4 318 17.4 100990 62
2006-06-19 06:56:21 51°14.931 2°53.167 14.7 304 17.4 100990 62
2006-06-19 06:56:26 51°14.934 2°53.142 15.3 319 17.4 100980 62
2006-06-19 06:56:32 51°14.938 2°53.112 15.1 305 17.4 100980 62
2006-06-19 06:56:36 51°14.94 2°53.092 15.4 317 17.4 100990 61
2006-06-19 06:56:41 51°14.944 2°53.067 15.3 305 17.4 100990 61
2006-06-19 06:56:46 51°14.948 2°53.042 15.5 317 17.4 100990 61
2006-06-19 06:56:50 51°14.951 2°53.023 15.1 304 17.4 100990 61
2006-06-19 06:56:56 51°14.956 2°52.993 15.3 315 17.4 100990 60
2006-06-19 06:57:01 51°14.96 2°52.969 14.8 305 17.4 100990 60
2006-06-19 06:57:06 51°14.965 2°52.944 14.2 316 17.4 100980 61
2006-06-19 06:57:10 51°14.969 2°52.925 15.4 306 17.4 100980 61
2006-06-19 06:57:16 51°14.974 2°52.896 16.2 316 17.4 100970 60
2006-06-19 06:57:21 51°14.979 2°52.871 15.6 306 17.4 100970 60
2006-06-19 06:57:26 51°14.982 2°52.847 14.9 26 17.4 100980 59
2006-06-19 06:57:32 51°14.987 2°52.818 14.6 308 17.4 100980 59
2006-06-19 06:57:36 51°14.99 2°52.799 15.5 22 17.4 100980 59
2006-06-19 06:57:41 51°14.994 2°52.774 15 310 17.4 100980 59
2006-06-19 06:57:46 51°14.998 2°52.75 15.3 20 17.4 100970 58
2006-06-19 06:57:50 51°15 2°52.73 14.2 308 17.4 100970 58
2006-06-19 06:57:56 51°15.004 2°52.701 14.5 318 17.4 100970 60
2006-06-19 06:58:01 51°15.007 2°52.676 14.9 308 17.4 100970 60
2006-06-19 06:58:06 51°15.01 2°52.652 14.3 316 17.4 100980 60
2006-06-19 06:58:12 51°15.013 2°52.623 14.3 308 17.4 100980 60
2006-06-19 06:58:16 51°15.015 2°52.603 16.4 318 17.4 100970 61
2006-06-19 06:58:21 51°15.018 2°52.578 16 302 17.4 100970 61
2006-06-19 06:58:26 51°15.021 2°52.554 15.1 319 17.4 100990 62
2006-06-19 06:58:32 51°15.024 2°52.525 15.8 306 17.4 100990 62
2006-06-19 06:58:36 51°15.026 2°52.505 15.8 318 17.4 100990 62
2006-06-19 06:58:41 51°15.028 2°52.481 15.4 306 17.4 100990 62
2006-06-19 06:58:46 51°15.031 2°52.456 14.5 320 17.4 100980 62
2006-06-19 06:58:50 51°15.033 2°52.437 16.1 305 17.4 100980 62
2006-06-19 06:58:56 51°15.036 2°52.407 16.4 317 17.4 100990 61
2006-06-19 06:59:01 51°15.039 2°52.383 14.8 303 17.4 100990 61
2006-06-19 06:59:06 51°15.041 2°52.358 13.6 320 17.4 100980 62
2006-06-19 06:59:11 51°15.044 2°52.334 13.9 308 17.4 100980 62
2006-06-19 06:59:16 51°15.046 2°52.309 15.6 318 17.3 100980 61
2006-06-19 06:59:21 51°15.049 2°52.284 14.2 302 17.3 100980 61
2006-06-19 06:59:27 51°15.052 2°52.255 13.6 320 17.4 100980 62
2006-06-19 06:59:30 51°15.053 2°52.24 14.3 305 17.4 100980 62
2006-06-19 06:59:36 51°15.056 2°52.211 13.7 319 17.4 100990 63
2006-06-19 06:59:41 51°15.058 2°52.186 15.1 309 17.4 100990 63
2006-06-19 06:59:46 51°15.062 2°52.161 15.6 319 17.4 100980 63
2006-06-19 06:59:52 51°15.066 2°52.132 15.5 307 17.4 100980 63
2006-06-19 06:59:56 51°15.069 2°52.112 16.1 318 17.4 100990 64
2006-06-19 07:00:01 51°15.073 2°52.088 16 307 17.4 100990 64
2006-06-19 07:00:06 51°15.076 2°52.064 16.2 318 17.4 100990 63
2006-06-19 07:00:11 51°15.079 2°52.039 16.9 304 17.4 100990 63
2006-06-19 07:00:16 51°15.082 2°52.015 16.7 319 17.4 100990 63
2006-06-19 07:00:21 51°15.083 2°51.99 17.3 283 17.4 100990 63
2006-06-19 07:00:26 51°15.085 2°51.966 16.5 321 17.3 100980 62
2006-06-19 07:00:32 51°15.085 2°51.937 17 321 17.3 100980 62
2006-06-19 07:00:36 51°15.085 2°51.917 16.7 323 17.3 100980 61
2006-06-19 07:00:41 51°15.085 2°51.893 16.6 303 17.3 100980 61
2006-06-19 07:00:46 51°15.085 2°51.869 16.3 322 17.3 100980 60
2006-06-19 07:00:50 51°15.085 2°51.85 17.2 324 17.3 100980 60
2006-06-19 07:00:56 51°15.084 2°51.821 16.9 323 17.2 100980 60
2006-06-19 07:01:01 51°15.083 2°51.796 16.6 308 17.2 100980 60
2006-06-19 07:01:06 51°15.082 2°51.772 16.9 323 17.2 100980 60
2006-06-19 07:01:10 51°15.081 2°51.753 17.1 304 17.2 100980 60
2006-06-19 07:01:17 51°15.081 2°51.719 17.7 322 17.2 100990 61
2006-06-19 07:01:21 51°15.08 2°51.699 16.5 307 17.2 100990 61
2006-06-19 07:01:26 51°15.08 2°51.675 16.2 323 17.2 100990 61
2006-06-19 07:01:32 51°15.08 2°51.646 15.6 302 17.2 100990 61
2006-06-19 07:01:36 51°15.08 2°51.626 16.4 322 17.2 100980 61
2006-06-19 07:01:41 51°15.081 2°51.601 16.4 308 17.2 100980 61
2006-06-19 07:01:46 51°15.083 2°51.577 16.5 320 17.2 100980 60
2006-06-19 07:01:50 51°15.084 2°51.557 15.4 304 17.2 100980 60
2006-06-19 07:01:56 51°15.087 2°51.528 15.1 318 17.2 100980 61
2006-06-19 07:02:01 51°15.089 2°51.503 15.3 307 17.2 100980 61
2006-06-19 07:02:06 51°15.092 2°51.479 16.4 320 17.2 100980 60
2006-06-19 07:02:12 51°15.095 2°51.449 16.7 308 17.2 100980 60
2006-06-19 07:02:16 51°15.097 2°51.43 16.7 315 17.2 100980 60
2006-06-19 07:02:21 51°15.1 2°51.405 16.2 303 17.2 100980 60
2006-06-19 07:02:26 51°15.103 2°51.381 16.5 318 17.1 100990 61
2006-06-19 07:02:31 51°15.107 2°51.356 15 307 17.1 100990 61
2006-06-19 07:02:36 51°15.111 2°51.332 16.3 316 17.1 100990 62
2006-06-19 07:02:41 51°15.114 2°51.308 14.5 306 17.1 100990 62
2006-06-19 07:02:46 51°15.117 2°51.283 14.3 317 17.1 100980 60
2006-06-19 07:02:50 51°15.12 2°51.264 14.1 308 17.1 100980 60
2006-06-19 07:02:56 51°15.123 2°51.234 14.6 318 17.1 100980 62
2006-06-19 07:03:01 51°15.126 2°51.209 15 309 17.1 100980 62
2006-06-19 07:03:06 51°15.129 2°51.185 16.5 319 17.1 100980 63
2006-06-19 07:03:12 51°15.133 2°51.156 15.6 306 17.1 100980 63
2006-06-19 07:03:16 51°15.135 2°51.136 16.1 318 17.1 100990 64
2006-06-19 07:03:21 51°15.138 2°51.111 15.6 306 17.1 100990 64
2006-06-19 07:03:25 51°15.14 2°51.092 15.5 319 17.1 100990 64
2006-06-19 07:03:30 51°15.143 2°51.067 14.5 305 17.1 100990 64
2006-06-19 07:03:36 51°15.147 2°51.038 15.7 319 17.1 100990 62
2006-06-19 07:03:41 51°15.15 2°51.013 14.4 302 17.1 100990 62
2006-06-19 07:03:46 51°15.154 2°50.989 15.4 318 17.1 100980 63
2006-06-19 07:03:52 51°15.16 2°50.96 15.8 304 17.1 100980 63
2006-06-19 07:03:56 51°15.165 2°50.941 15.6 315 17.1 100990 64
2006-06-19 07:04:01 51°15.171 2°50.917 16.1 304 17.1 100990 64
2006-06-19 07:04:06 51°15.178 2°50.894 15.6 25 17.1 100990 65
2006-06-19 07:04:11 51°15.185 2°50.87 15.2 304 17.1 100990 65
2006-06-19 07:04:16 51°15.192 2°50.847 15.7 26 17 100990 64
2006-06-19 07:04:21 51°15.199 2°50.824 16.1 280 17 100990 64
2006-06-19 07:04:26 51°15.206 2°50.801 15 24 17 100980 63
2006-06-19 07:04:30 51°15.211 2°50.782 14.4 307 17 100980 63
2006-06-19 07:04:36 51°15.219 2°50.754 15.5 315 17 100990 63
2006-06-19 07:04:40 51°15.224 2°50.735 15.5 308 17 100990 63
2006-06-19 07:04:46 51°15.232 2°50.707 14.6 26 17 100980 63
2006-06-19 07:04:52 51°15.24 2°50.679 14.8 307 17 100980 63
2006-06-19 07:04:56 51°15.245 2°50.66 14.5 22 16.9 100990 64
2006-06-19 07:05:02 51°15.252 2°50.631 15.3 303 16.9 100990 64
2006-06-19 07:05:06 51°15.257 2°50.612 13.6 317 17 100980 64
2006-06-19 07:05:12 51°15.264 2°50.584 15 304 17 100980 64
2006-06-19 07:05:16 51°15.269 2°50.565 14.5 318 16.9 100990 65
2006-06-19 07:05:21 51°15.275 2°50.541 16 308 16.9 100990 65
2006-06-19 07:05:26 51°15.28 2°50.517 15.6 317 16.9 100990 65
2006-06-19 07:05:32 51°15.287 2°50.489 15.3 303 16.9 100990 65
2006-06-19 07:05:36 51°15.292 2°50.47 16 316 16.9 100990 65
2006-06-19 07:05:41 51°15.297 2°50.445 15.7 306 16.9 100990 65
2006-06-19 07:05:46 51°15.303 2°50.422 16.1 315 16.9 101000 65
2006-06-19 07:05:50 51°15.308 2°50.403 14.3 307 16.9 101000 65
2006-06-19 07:05:56 51°15.314 2°50.374 14.1 317 16.9 100990 65
2006-06-19 07:06:01 51°15.32 2°50.35 15.8 304 16.9 100990 65
2006-06-19 07:06:06 51°15.325 2°50.326 15.5 316 16.9 100990 64
2006-06-19 07:06:11 51°15.331 2°50.302 14.3 302 16.9 100990 64
2006-06-19 07:06:16 51°15.337 2°50.278 13.8 317 16.9 100990 66
2006-06-19 07:06:21 51°15.344 2°50.255 15.1 310 16.9 100990 66
2006-06-19 07:06:26 51°15.35 2°50.231 15.7 316 16.9 100990 65
2006-06-19 07:06:32 51°15.358 2°50.203 14.6 302 16.9 100990 65
2006-06-19 07:06:36 51°15.363 2°50.184 14.6 316 16.9 100990 66
2006-06-19 07:06:42 51°15.372 2°50.156 16.9 307 16.9 100990 66
2006-06-19 07:06:45 51°15.376 2°50.142 15.9 317 16.8 100990 66
2006-06-19 07:06:50 51°15.382 2°50.119 16 306 16.8 100990 66
2006-06-19 07:06:56 51°15.39 2°50.091 15.7 317 16.9 100990 66
2006-06-19 07:07:00 51°15.395 2°50.072 15.9 305 16.9 100990 66
2006-06-19 07:07:06 51°15.402 2°50.044 16 317 16.8 100990 65
2006-06-19 07:07:11 51°15.408 2°50.021 16.5 305 16.8 100990 65
2006-06-19 07:07:16 51°15.414 2°49.997 15.8 316 16.8 100980 64
2006-06-19 07:07:21 51°15.42 2°49.973 16.3 304 16.8 100980 64
2006-06-19 07:07:26 51°15.425 2°49.95 15.8 316 16.8 100990 64
2006-06-19 07:07:32 51°15.432 2°49.922 15.3 307 16.8 100990 64
2006-06-19 07:07:36 51°15.436 2°49.903 15.9 316 16.8 100990 64
2006-06-19 07:07:41 51°15.442 2°49.879 14.8 303 16.8 100990 64
2006-06-19 07:07:46 51°15.448 2°49.855 15.8 23 16.8 100990 64
2006-06-19 07:07:50 51°15.452 2°49.836 16 305 16.8 100990 64
2006-06-19 07:07:56 51°15.46 2°49.808 15 23 16.8 101000 65
2006-06-19 07:08:01 51°15.466 2°49.784 14.8 306 16.8 101000 65
2006-06-19 07:08:06 51°15.472 2°49.76 15.4 316 16.8 100990 66
2006-06-19 07:08:11 51°15.478 2°49.736 16.7 307 16.8 100990 66
2006-06-19 07:08:16 51°15.484 2°49.712 15 316 16.8 100980 65
2006-06-19 07:08:21 51°15.49 2°49.688 14.1 283 16.8 100980 65
2006-06-19 07:08:27 51°15.498 2°49.66 14.1 318 16.8 100990 66
2006-06-19 07:08:30 51°15.501 2°49.646 15.6 307 16.8 100990 66
2006-06-19 07:08:36 51°15.508 2°49.617 16.6 316 16.8 100990 65
2006-06-19 07:08:41 51°15.513 2°49.593 16.4 308 16.8 100990 65
2006-06-19 07:08:46 51°15.518 2°49.569 15.2 316 16.8 100990 65
2006-06-19 07:08:51 51°15.524 2°49.545 14.7 306 16.8 100990 65
2006-06-19 07:08:56 51°15.529 2°49.521 14.4 317 16.7 101000 65
2006-06-19 07:09:01 51°15.535 2°49.497 15.4 309 16.7 101000 65
2006-06-19 07:09:06 51°15.541 2°49.474 15.3 24 16.7 100990 65
2006-06-19 07:09:11 51°15.547 2°49.451 15.1 303 16.7 100990 65
2006-06-19 07:09:16 51°15.554 2°49.427 14.5 316 16.7 101000 66
2006-06-19 07:09:20 51°15.558 2°49.408 14.8 306 16.7 101000 66
2006-06-19 07:09:26 51°15.566 2°49.379 14.9 316 16.7 101000 65
2006-06-19 07:09:30 51°15.57 2°49.36 14.1 302 16.7 101000 65
2006-06-19 07:09:36 51°15.578 2°49.331 14.7 317 16.7 101000 67
2006-06-19 07:09:40 51°15.582 2°49.312 15.1 305 16.7 101000 67
2006-06-19 07:09:46 51°15.589 2°49.283 15.3 317 16.7 100990 66
2006-06-19 07:09:52 51°15.595 2°49.254 16.4 309 16.7 100990 66
2006-06-19 07:09:57 51°15.601 2°49.23 15.8 316 16.7 101010 66
2006-06-19 07:10:01 51°15.606 2°49.211 14.8 305 16.7 101010 66
2006-06-19 07:10:06 51°15.612 2°49.188 15.1 318 16.7 101000 66
2006-06-19 07:10:11 51°15.619 2°49.164 14.4 305 16.7 101000 66
2006-06-19 07:10:16 51°15.625 2°49.14 15.6 317 16.7 101000 66
2006-06-19 07:10:22 51°15.633 2°49.111 15.3 280 16.7 101000 66
2006-06-19 07:10:26 51°15.638 2°49.092 15.3 315 16.7 100990 66
2006-06-19 07:10:31 51°15.644 2°49.069 14.3 306 16.7 100990 66
2006-06-19 07:10:36 51°15.651 2°49.045 15.1 21 16.7 101000 67
2006-06-19 07:10:42 51°15.658 2°49.017 15.3 306 16.7 101000 67
2006-06-19 07:10:46 51°15.663 2°48.998 15.7 316 16.7 101000 67
2006-06-19 07:10:51 51°15.669 2°48.974 15.3 304 16.7 101000 67
2006-06-19 07:10:56 51°15.675 2°48.95 13.7 23 16.7 101000 67
2006-06-19 07:11:02 51°15.682 2°48.921 15 308 16.7 101000 67
2006-06-19 07:11:06 51°15.686 2°48.902 16.5 316 16.6 101000 66
2006-06-19 07:11:10 51°15.69 2°48.883 14.2 304 16.6 101000 66
2006-06-19 07:11:16 51°15.697 2°48.854 14.6 316 16.6 101000 66
2006-06-19 07:11:21 51°15.703 2°48.83 13.7 306 16.6 101000 66
2006-06-19 07:11:26 51°15.708 2°48.806 15.2 21 16.7 101000 67
2006-06-19 07:11:32 51°15.715 2°48.777 14.8 301 16.7 101000 67
2006-06-19 07:11:36 51°15.72 2°48.758 14.8 22 16.6 101010 68
2006-06-19 07:11:41 51°15.727 2°48.734 14.4 308 16.6 101010 68
2006-06-19 07:11:46 51°15.733 2°48.71 13.2 316 16.6 101010 68
2006-06-19 07:11:52 51°15.742 2°48.682 14.6 305 16.6 101010 68
2006-06-19 07:11:56 51°15.747 2°48.663 14.7 26 16.6 101010 68
2006-06-19 07:12:01 51°15.753 2°48.64 15.5 304 16.6 101010 68
2006-06-19 07:12:06 51°15.759 2°48.616 15.3 318 16.7 101010 68
2006-06-19 07:12:11 51°15.766 2°48.592 15.3 305 16.7 101010 68
2006-06-19 07:12:16 51°15.771 2°48.567 13.8 315 16.7 101010 68
2006-06-19 07:12:21 51°15.777 2°48.543 14.5 305 16.7 101010 68
2006-06-19 07:12:26 51°15.783 2°48.519 15.2 319 16.6 101010 68
2006-06-19 07:12:31 51°15.788 2°48.496 16.6 308 16.6 101010 68
2006-06-19 07:12:36 51°15.794 2°48.472 16.4 318 16.6 101000 67
2006-06-19 07:12:41 51°15.8 2°48.448 16.6 306 16.6 101000 67
2006-06-19 07:12:45 51°15.804 2°48.429 16.2 26 16.6 101010 68
2006-06-19 07:12:51 51°15.812 2°48.401 15.9 302 16.6 101010 68
2006-06-19 07:12:56 51°15.818 2°48.378 14.5 24 16.6 101010 67
2006-06-19 07:13:01 51°15.825 2°48.355 15.4 309 16.6 101010 67
2006-06-19 07:13:06 51°15.832 2°48.332 14.4 317 16.6 101000 67
2006-06-19 07:13:12 51°15.84 2°48.304 13.2 303 16.6 101000 67
2006-06-19 07:13:16 51°15.845 2°48.286 14.5 316 16.6 101000 67
2006-06-19 07:13:21 51°15.852 2°48.263 14.7 276 16.6 101000 67
2006-06-19 07:13:26 51°15.858 2°48.239 14.7 315 16.6 101000 67
2006-06-19 07:13:30 51°15.863 2°48.221 14.1 304 16.6 101000 67
2006-06-19 07:13:36 51°15.871 2°48.193 14.6 315 16.6 101010 68
2006-06-19 07:13:41 51°15.876 2°48.169 14.1 305 16.6 101010 68
2006-06-19 07:13:46 51°15.882 2°48.146 14.7 317 16.6 101010 68
2006-06-19 07:13:52 51°15.89 2°48.118 14.6 304 16.6 101010 68
2006-06-19 07:13:56 51°15.894 2°48.099 13.3 318 16.5 101010 68
2006-06-19 07:14:01 51°15.9 2°48.075 14.4 307 16.5 101010 68
2006-06-19 07:14:06 51°15.905 2°48.052 13.9 317 16.6 101000 69
2006-06-19 07:14:12 51°15.911 2°48.023 14 303 16.6 101000 69
2006-06-19 07:14:16 51°15.916 2°48.004 14 319 16.6 101010 69
2006-06-19 07:14:21 51°15.921 2°47.981 14.9 305 16.6 101010 69
2006-06-19 07:14:25 51°15.926 2°47.962 15.2 316 16.6 101010 69
2006-06-19 07:14:32 51°15.934 2°47.929 14.8 303 16.6 101010 69
2006-06-19 07:14:36 51°15.939 2°47.91 15.4 316 16.6 101010 69
2006-06-19 07:14:41 51°15.945 2°47.887 15.1 308 16.6 101010 69
2006-06-19 07:14:46 51°15.952 2°47.864 15.5 318 16.5 101010 69
2006-06-19 07:14:50 51°15.956 2°47.845 14.3 300 16.5 101010 69
2006-06-19 07:14:56 51°15.963 2°47.817 14.1 317 16.5 101010 69
2006-06-19 07:15:01 51°15.969 2°47.794 14.3 306 16.5 101010 69
2006-06-19 07:15:06 51°15.975 2°47.77 14.9 318 16.5 101000 68
2006-06-19 07:15:11 51°15.981 2°47.747 15.3 306 16.5 101000 68
2006-06-19 07:15:16 51°15.986 2°47.723 14.8 317 16.5 101010 69
2006-06-19 07:15:21 51°15.992 2°47.699 13.7 282 16.5 101010 69
2006-06-19 07:15:26 51°15.998 2°47.676 14.6 317 16.5 101010 69
2006-06-19 07:15:32 51°16.006 2°47.648 13.4 306 16.5 101010 69
2006-06-19 07:15:36 51°16.011 2°47.629 14.3 316 16.5 101000 69
2006-06-19 07:15:42 51°16.019 2°47.601 15.6 307 16.5 101000 69
2006-06-19 07:15:46 51°16.024 2°47.583 14.7 24 16.5 101010 69
2006-06-19 07:15:50 51°16.029 2°47.564 14.7 310 16.5 101010 69
2006-06-19 07:15:56 51°16.036 2°47.536 14.8 24 16.5 101010 69
2006-06-19 07:15:58 51°16.039 2°47.527 14.5 303 16.5 101010 69
2006-06-19 07:16:06 51°16.048 2°47.489 15.3 318 16.4 101010 68
2006-06-19 07:16:12 51°16.054 2°47.461 15.9 306 16.4 101010 68
2006-06-19 07:16:16 51°16.059 2°47.442 14.8 318 16.5 101000 69
2006-06-19 07:16:21 51°16.064 2°47.418 15.3 306 16.5 101000 69
2006-06-19 07:16:26 51°16.069 2°47.395 15.1 316 16.4 101000 70
2006-06-19 07:16:32 51°16.076 2°47.367 14.4 303 16.4 101000 70
2006-06-19 07:16:36 51°16.08 2°47.348 15.9 27 16.4 101010 69
2006-06-19 07:16:41 51°16.086 2°47.324 14.7 307 16.4 101010 69
2006-06-19 07:16:46 51°16.092 2°47.301 14.4 318 16.4 101000 69
2006-06-19 07:16:52 51°16.099 2°47.272 15.5 307 16.4 101000 69
2006-06-19 07:16:56 51°16.105 2°47.254 15.3 316 16.4 101000 69
2006-06-19 07:17:01 51°16.111 2°47.231 15.4 306 16.4 101000 69
2006-06-19 07:17:06 51°16.118 2°47.207 15.5 316 16.4 101000 69
2006-06-19 07:17:12 51°16.125 2°47.18 15.1 305 16.4 101000 69
2006-06-19 07:17:16 51°16.131 2°47.161 14.7 28 16.4 101000 69
2006-06-19 07:17:22 51°16.138 2°47.133 14.8 304 16.4 101000 69
2006-06-19 07:17:26 51°16.144 2°47.114 15.4 24 16.4 100990 69
2006-06-19 07:17:32 51°16.152 2°47.087 13.6 305 16.4 100990 69
2006-06-19 07:17:36 51°16.157 2°47.068 13.5 317 16.4 101000 69
2006-06-19 07:17:41 51°16.163 2°47.044 13.9 309 16.4 101000 69
2006-06-19 07:17:46 51°16.168 2°47.021 14.3 318 16.4 101000 69
2006-06-19 07:17:52 51°16.175 2°46.992 13.3 302 16.4 101000 69
2006-06-19 07:17:56 51°16.179 2°46.973 14.5 318 16.4 101000 70
2006-06-19 07:18:02 51°16.187 2°46.945 13.5 306 16.4 101000 70
2006-06-19 07:18:06 51°16.192 2°46.926 13.9 315 16.4 101010 71
2006-06-19 07:18:11 51°16.198 2°46.903 15.3 308 16.4 101010 71
2006-06-19 07:18:16 51°16.205 2°46.879 14.9 315 16.4 101010 71
2006-06-19 07:18:20 51°16.21 2°46.861 14.3 307 16.4 101010 71
2006-06-19 07:18:26 51°16.218 2°46.833 15.2 316 16.4 101000 71
2006-06-19 07:18:30 51°16.223 2°46.814 15.5 308 16.4 101000 71
2006-06-19 07:18:36 51°16.231 2°46.786 15.1 316 16.4 101000 70
2006-06-19 07:18:41 51°16.237 2°46.763 14.7 310 16.4 101000 70
2006-06-19 07:18:46 51°16.243 2°46.739 14.8 317 16.3 101000 70
2006-06-19 07:18:50 51°16.247 2°46.72 15 309 16.3 101000 70
2006-06-19 07:18:56 51°16.254 2°46.691 14.5 317 16.4 101000 70
2006-06-19 07:19:02 51°16.26 2°46.662 15.8 306 16.4 101000 70
2006-06-19 07:19:06 51°16.264 2°46.643 15 320 16.3 101000 70
2006-06-19 07:19:10 51°16.268 2°46.624 15.1 303 16.3 101000 70
2006-06-19 07:19:16 51°16.273 2°46.595 15.3 317 16.3 101000 70
2006-06-19 07:19:21 51°16.277 2°46.57 16.2 281 16.3 101000 70
2006-06-19 07:19:26 51°16.281 2°46.546 14.5 318 16.3 101000 70
2006-06-19 07:19:32 51°16.286 2°46.517 14.9 307 16.3 101000 70
2006-06-19 07:19:36 51°16.289 2°46.497 14.7 317 16.3 101000 70
2006-06-19 07:19:41 51°16.293 2°46.473 16 302 16.3 101000 70
2006-06-19 07:19:46 51°16.297 2°46.448 15.6 319 16.3 101010 70
2006-06-19 07:19:51 51°16.302 2°46.424 15.6 306 16.3 101010 70
2006-06-19 07:19:56 51°16.306 2°46.399 13.5 317 16.3 101000 70
2006-06-19 07:20:01 51°16.311 2°46.375 13.1 303 16.3 101000 70
2006-06-19 07:20:06 51°16.316 2°46.351 14.6 317 16.3 101000 70
2006-06-19 07:20:09 51°16.32 2°46.336 13.9 308 16.3 101000 70
2006-06-19 07:20:16 51°16.326 2°46.302 14.3 319 16.3 101010 70
2006-06-19 07:20:21 51°16.331 2°46.278 14.1 306 16.3 101010 70
2006-06-19 07:20:26 51°16.336 2°46.253 15.3 318 16.3 101010 71
2006-06-19 07:20:31 51°16.34 2°46.229 15.2 305 16.3 101010 71
2006-06-19 07:20:36 51°16.344 2°46.204 14.3 319 16.3 101010 71
2006-06-19 07:20:41 51°16.349 2°46.179 15.1 320 16.3 101010 71
2006-06-19 07:20:46 51°16.353 2°46.154 14 318 16.3 101010 71
2006-06-19 07:20:50 51°16.357 2°46.134 14.1 308 16.3 101010 71
2006-06-19 07:20:56 51°16.361 2°46.105 14.2 319 16.3 101000 71
2006-06-19 07:21:01 51°16.365 2°46.08 14.1 308 16.3 101000 71
2006-06-19 07:21:06 51°16.369 2°46.055 14.2 319 16.3 101000 71
2006-06-19 07:21:11 51°16.373 2°46.03 15.6 302 16.3 101000 71
2006-06-19 07:21:16 51°16.377 2°46.005 15.8 320 16.3 101010 71
2006-06-19 07:21:22 51°16.383 2°45.975 15.2 282 16.3 101010 71
2006-06-19 07:21:26 51°16.386 2°45.956 14.8 318 16.3 101010 72
2006-06-19 07:21:30 51°16.39 2°45.936 14.9 307 16.3 101010 72
2006-06-19 07:21:36 51°16.396 2°45.906 14.8 318 16.3 101010 72
2006-06-19 07:21:41 51°16.401 2°45.882 14.7 306 16.3 101010 72
2006-06-19 07:21:46 51°16.407 2°45.857 14.7 317 16.2 101000 71
2006-06-19 07:21:52 51°16.412 2°45.827 15 304 16.2 101000 71
2006-06-19 07:21:56 51°16.416 2°45.807 14.8 319 16.2 101000 71
2006-06-19 07:22:01 51°16.421 2°45.783 13.4 304 16.2 101000 71
2006-06-19 07:22:06 51°16.426 2°45.758 15 318 16.2 101010 71
2006-06-19 07:22:11 51°16.431 2°45.733 15.1 308 16.2 101010 71
2006-06-19 07:22:16 51°16.435 2°45.708 15.1 317 16.2 101010 72
2006-06-19 07:22:22 51°16.441 2°45.678 15 307 16.2 101010 72
2006-06-19 07:22:26 51°16.444 2°45.658 14.7 319 16.2 101010 72
2006-06-19 07:22:30 51°16.448 2°45.639 15 305 16.2 101010 72
2006-06-19 07:22:36 51°16.453 2°45.609 14.8 319 16.2 101000 72
2006-06-19 07:22:41 51°16.457 2°45.583 13.5 307 16.2 101000 72
2006-06-19 07:22:46 51°16.461 2°45.558 14.1 315 16.2 100990 71
2006-06-19 07:22:52 51°16.466 2°45.529 14.7 307 16.2 100990 71
2006-06-19 07:22:56 51°16.469 2°45.509 15.5 317 16.1 101000 71
2006-06-19 07:23:01 51°16.474 2°45.483 15.3 304 16.1 101000 71
2006-06-19 07:23:06 51°16.479 2°45.459 13.7 316 16.2 101000 71
2006-06-19 07:23:12 51°16.485 2°45.429 14.7 310 16.2 101000 71
2006-06-19 07:23:16 51°16.488 2°45.409 14 318 16.2 101010 71
2006-06-19 07:23:21 51°16.493 2°45.384 14 285 16.2 101010 71
2006-06-19 07:23:26 51°16.498 2°45.359 14.7 315 16.2 101000 71
2006-06-19 07:23:30 51°16.501 2°45.339 14.4 305 16.2 101000 71
2006-06-19 07:23:36 51°16.507 2°45.309 14.7 317 16.2 101000 71
2006-06-19 07:23:42 51°16.512 2°45.279 14.3 303 16.2 101000 71
2006-06-19 07:23:46 51°16.515 2°45.259 12.9 316 16.1 101000 71
2006-06-19 07:23:50 51°16.518 2°45.239 14.7 303 16.1 101000 71
2006-06-19 07:23:57 51°16.524 2°45.204 14.4 319 16.1 101000 71
2006-06-19 07:24:01 51°16.529 2°45.184 13 308 16.1 101000 71
2006-06-19 07:24:06 51°16.534 2°45.16 13.9 20 16.1 101000 72
2006-06-19 07:24:12 51°16.542 2°45.131 14.9 310 16.1 101000 72
2006-06-19 07:24:16 51°16.548 2°45.112 15.8 25 16.1 101000 72
2006-06-19 07:24:21 51°16.555 2°45.088 15 284 16.1 101000 72
2006-06-19 07:24:26 51°16.562 2°45.064 15.2 25 16.1 101010 72
2006-06-19 07:24:31 51°16.569 2°45.041 14.7 307 16.1 101010 72
2006-06-19 07:24:36 51°16.576 2°45.017 15.9 27 16.1 101010 72
2006-06-19 07:24:42 51°16.585 2°44.988 14.5 306 16.1 101010 72
2006-06-19 07:24:46 51°16.591 2°44.97 14.2 21 16.1 101000 71
2006-06-19 07:24:52 51°16.601 2°44.941 13.4 307 16.1 101000 71
2006-06-19 07:24:56 51°16.607 2°44.922 13.1 23 16.1 101000 72
2006-06-19 07:25:01 51°16.615 2°44.9 13.9 307 16.1 101000 72
2006-06-19 07:25:06 51°16.623 2°44.876 13.9 25 16.1 101000 72
2006-06-19 07:25:11 51°16.631 2°44.853 14.1 304 16.1 101000 72
2006-06-19 07:25:16 51°16.64 2°44.83 12.8 22 16.1 101010 73
2006-06-19 07:25:20 51°16.647 2°44.812 14.1 284 16.1 101010 73
2006-06-19 07:25:26 51°16.657 2°44.784 13.8 27 16.1 101010 73
2006-06-19 07:25:30 51°16.664 2°44.766 13.3 305 16.1 101010 73
2006-06-19 07:25:36 51°16.674 2°44.738 13.5 22 16.1 101010 73
2006-06-19 07:25:41 51°16.682 2°44.715 13 302 16.1 101010 73
2006-06-19 07:25:46 51°16.691 2°44.692 13.2 24 16.1 101010 73
2006-06-19 07:25:51 51°16.699 2°44.669 13.9 307 16.1 101010 73
2006-06-19 07:25:56 51°16.708 2°44.646 14.3 25 16.1 101010 73
2006-06-19 07:26:02 51°16.718 2°44.618 15.1 308 16.1 101010 73
2006-06-19 07:26:06 51°16.724 2°44.6 15 24 16.1 101010 73
2006-06-19 07:26:10 51°16.731 2°44.581 13.5 306 16.1 101010 73
2006-06-19 07:26:16 51°16.741 2°44.553 13.6 27 16 101010 73
2006-06-19 07:26:22 51°16.751 2°44.526 12.9 278 16 101010 73
2006-06-19 07:26:26 51°16.757 2°44.507 12.8 26 16 101010 73
2006-06-19 07:26:30 51°16.764 2°44.488 13.8 304 16 101010 73
2006-06-19 07:26:36 51°16.773 2°44.461 13.8 24 16 101010 73
2006-06-19 07:26:42 51°16.783 2°44.433 13.2 305 16 101010 73
2006-06-19 07:26:46 51°16.79 2°44.414 14.3 20 16 101010 73
2006-06-19 07:26:50 51°16.797 2°44.396 14 302 16 101010 73
2006-06-19 07:26:56 51°16.807 2°44.368 13.1 30 16.1 101020 74
2006-06-19 07:27:01 51°16.816 2°44.346 13.5 307 16.1 101020 74
2006-06-19 07:27:06 51°16.825 2°44.323 13.4 22 16 101010 74
2006-06-19 07:27:12 51°16.835 2°44.295 13.7 304 16 101010 74
2006-06-19 07:27:16 51°16.842 2°44.277 14.3 27 16 101000 73
2006-06-19 07:27:21 51°16.851 2°44.255 14.6 282 16 101000 73
2006-06-19 07:27:27 51°16.862 2°44.228 14.2 28 16 101000 73
2006-06-19 07:27:30 51°16.868 2°44.214 14.2 303 16 101000 73
2006-06-19 07:27:36 51°16.878 2°44.187 15 22 16 101010 73
2006-06-19 07:27:42 51°16.888 2°44.159 14.4 300 16 101010 73
2006-06-19 07:27:46 51°16.895 2°44.141 14.3 25 16 101010 73
2006-06-19 07:27:51 51°16.903 2°44.118 13.2 302 16 101010 73
2006-06-19 07:27:56 51°16.912 2°44.095 13.8 22 16 101000 73
2006-06-19 07:28:01 51°16.92 2°44.072 14 309 16 101000 73
2006-06-19 07:28:06 51°16.929 2°44.049 14.1 20 16 101010 73
2006-06-19 07:28:10 51°16.936 2°44.031 13.5 303 16 101010 73
2006-06-19 07:28:16 51°16.947 2°44.004 14.7 27 16 101010 73
2006-06-19 07:28:21 51°16.956 2°43.981 14.7 283 16 101010 73
2006-06-19 07:28:25 51°16.963 2°43.963 14.2 26 16 101000 73
2006-06-19 07:28:30 51°16.972 2°43.941 13.4 310 16 101000 73
2006-06-19 07:28:36 51°16.983 2°43.914 14.1 26 16 101000 74
2006-06-19 07:28:42 51°16.993 2°43.887 13.9 305 16 101000 74
2006-06-19 07:28:46 51°17 2°43.868 14.2 23 16 101000 73
2006-06-19 07:28:50 51°17.007 2°43.85 14.5 302 16 101000 73
2006-06-19 07:28:56 51°17.018 2°43.823 14.3 23 16 101000 74
2006-06-19 07:29:02 51°17.028 2°43.795 11.7 303 16 101000 74
2006-06-19 07:29:06 51°17.035 2°43.777 15.2 25 16 101000 74
2006-06-19 07:29:12 51°17.045 2°43.75 15.1 309 16 101000 74
2006-06-19 07:29:16 51°17.053 2°43.732 14.4 24 16 101010 73
2006-06-19 07:29:22 51°17.064 2°43.705 13.6 283 16 101010 73
2006-06-19 07:29:26 51°17.072 2°43.687 14.3 23 16 101010 74
2006-06-19 07:29:32 51°17.083 2°43.661 14.5 306 16 101010 74
2006-06-19 07:29:36 51°17.091 2°43.644 13 24 16 101000 74
2006-06-19 07:29:41 51°17.101 2°43.622 12.4 309 16 101000 74
2006-06-19 07:29:46 51°17.112 2°43.6 12.9 25 16 101010 74
2006-06-19 07:29:52 51°17.124 2°43.574 12.4 310 16 101010 74
2006-06-19 07:29:56 51°17.131 2°43.557 13.5 20 16 101010 74
2006-06-19 07:30:01 51°17.141 2°43.535 12.8 303 16 101010 74
2006-06-19 07:30:06 51°17.15 2°43.512 13.7 24 16 101010 74
2006-06-19 07:30:12 51°17.161 2°43.485 13.2 303 16 101010 74
2006-06-19 07:30:16 51°17.168 2°43.467 13.9 27 16 101010 75
2006-06-19 07:30:21 51°17.178 2°43.445 14 302 16 101010 75
2006-06-19 07:30:26 51°17.187 2°43.423 13.3 27 16 101010 75
2006-06-19 07:30:32 51°17.198 2°43.397 13.7 308 16 101010 75
2006-06-19 07:30:36 51°17.205 2°43.38 14.5 24 16 101010 75
2006-06-19 07:30:42 51°17.217 2°43.353 13.3 308 16 101010 75
2006-06-19 07:30:47 51°17.227 2°43.332 13.2 22 16 101010 75
2006-06-19 07:30:52 51°17.237 2°43.31 14 308 16 101010 75
2006-06-19 07:30:56 51°17.245 2°43.293 13.2 21 16 101010 75
2006-06-19 07:31:01 51°17.254 2°43.271 13.5 309 16 101010 75
2006-06-19 07:31:05 51°17.262 2°43.254 13.5 24 16 101010 75
2006-06-19 07:31:10 51°17.271 2°43.232 13.1 308 16 101010 75
2006-06-19 07:31:16 51°17.282 2°43.205 14.6 26 16 101020 75
2006-06-19 07:31:22 51°17.292 2°43.179 12.9 286 16 101020 75
2006-06-19 07:31:26 51°17.3 2°43.162 13.5 26 16 101020 75
2006-06-19 07:31:31 51°17.31 2°43.14 14.3 304 16 101020 75
2006-06-19 07:31:36 51°17.32 2°43.119 14 24 16 101010 76
2006-06-19 07:31:41 51°17.33 2°43.097 13.5 306 16 101010 76
2006-06-19 07:31:46 51°17.34 2°43.075 14.6 25 16 101020 76
2006-06-19 07:31:50 51°17.348 2°43.059 13.6 306 16 101020 76
2006-06-19 07:31:56 51°17.361 2°43.033 13.7 23 16 101010 75
2006-06-19 07:32:01 51°17.37 2°43.012 13.4 305 16 101010 75
2006-06-19 07:32:05 51°17.378 2°42.994 13.9 27 16 101010 75
2006-06-19 07:32:12 51°17.392 2°42.965 13.2 305 16 101010 75
2006-06-19 07:32:16 51°17.4 2°42.948 13.4 25 16 101010 75
2006-06-19 07:32:21 51°17.409 2°42.926 13.7 303 16 101010 75
2006-06-19 07:32:26 51°17.418 2°42.904 14.2 24 16 101020 75
2006-06-19 07:32:32 51°17.43 2°42.878 13 306 16 101020 75
2006-06-19 07:32:36 51°17.437 2°42.861 13.4 21 15.9 101010 75
2006-06-19 07:32:41 51°17.446 2°42.839 13.7 307 15.9 101010 75
2006-06-19 07:32:46 51°17.455 2°42.817 13.1 25 15.9 101020 75
2006-06-19 07:32:52 51°17.467 2°42.791 14.2 304 15.9 101020 75
2006-06-19 07:32:56 51°17.475 2°42.774 13.5 24 15.9 101020 75
2006-06-19 07:33:01 51°17.485 2°42.753 13.6 308 15.9 101020 75
2006-06-19 07:33:06 51°17.495 2°42.731 12.8 23 15.9 101010 75
2006-06-19 07:33:11 51°17.505 2°42.71 13.3 303 15.9 101010 75
2006-06-19 07:33:16 51°17.515 2°42.689 13.1 27 15.9 101010 75
2006-06-19 07:33:22 51°17.527 2°42.664 13 282 15.9 101010 75
2006-06-19 07:33:26 51°17.535 2°42.646 13 25 15.9 101020 75
2006-06-19 07:33:31 51°17.545 2°42.624 12.9 304 15.9 101020 75
2006-06-19 07:33:36 51°17.554 2°42.602 13.2 25 15.9 101020 75
2006-06-19 07:33:41 51°17.564 2°42.58 12.7 307 15.9 101020 75
2006-06-19 07:33:46 51°17.573 2°42.558 12.9 25 15.9 101010 75
2006-06-19 07:33:50 51°17.581 2°42.541 14.5 303 15.9 101010 75
2006-06-19 07:33:56 51°17.594 2°42.516 14.9 26 15.9 101020 76
2006-06-19 07:34:01 51°17.604 2°42.494 13.5 301 15.9 101020 76
2006-06-19 07:34:06 51°17.614 2°42.473 12.7 25 16 101010 75
2006-06-19 07:34:11 51°17.624 2°42.451 14 307 16 101010 75
2006-06-19 07:34:16 51°17.634 2°42.43 14.6 22 15.9 101020 75
2006-06-19 07:34:21 51°17.644 2°42.408 14.5 283 15.9 101020 75
2006-06-19 07:34:26 51°17.653 2°42.386 14.5 28 15.9 101010 75
2006-06-19 07:34:32 51°17.665 2°42.36 13.5 305 15.9 101010 75
2006-06-19 07:34:36 51°17.673 2°42.343 15 25 15.9 101020 75
2006-06-19 07:34:41 51°17.683 2°42.321 13.4 306 15.9 101020 75
2006-06-19 07:34:46 51°17.692 2°42.3 15.1 20 15.9 101010 74
2006-06-19 07:34:50 51°17.7 2°42.282 14 304 15.9 101010 74
2006-06-19 07:34:56 51°17.712 2°42.257 14.4 25 15.9 101010 74
2006-06-19 07:35:02 51°17.724 2°42.231 14.9 308 15.9 101010 74
2006-06-19 07:35:06 51°17.732 2°42.213 15.2 23 15.9 101010 74
2006-06-19 07:35:11 51°17.742 2°42.191 14.6 306 15.9 101010 74
2006-06-19 07:35:16 51°17.751 2°42.169 13.3 27 15.9 101010 74
2006-06-19 07:35:21 51°17.761 2°42.147 12.6 285 15.9 101010 74
2006-06-19 07:35:26 51°17.77 2°42.125 13.1 24 15.9 101010 74
2006-06-19 07:35:31 51°17.78 2°42.103 12.9 306 15.9 101010 74
2006-06-19 07:35:36 51°17.79 2°42.081 13.8 23 15.9 101000 74
2006-06-19 07:35:42 51°17.801 2°42.055 14.7 309 15.9 101000 74
2006-06-19 07:35:46 51°17.809 2°42.037 14.7 25 15.9 101020 75
2006-06-19 07:35:50 51°17.817 2°42.02 14.3 308 15.9 101020 75
2006-06-19 07:35:56 51°17.828 2°41.993 14.1 25 15.9 101020 75
2006-06-19 07:36:02 51°17.839 2°41.966 13.7 310 15.9 101020 75
2006-06-19 07:36:06 51°17.847 2°41.948 13.3 21 15.9 101020 75
2006-06-19 07:36:11 51°17.856 2°41.927 13.7 307 15.9 101020 75
2006-06-19 07:36:16 51°17.866 2°41.904 12.6 27 15.9 101000 75
2006-06-19 07:36:22 51°17.878 2°41.878 14.6 305 15.9 101000 75
2006-06-19 07:36:26 51°17.885 2°41.86 12.8 26 15.9 101010 74
2006-06-19 07:36:32 51°17.896 2°41.833 13.9 305 15.9 101010 74
2006-06-19 07:36:36 51°17.904 2°41.815 13.3 26 15.9 101010 75
2006-06-19 07:36:41 51°17.913 2°41.793 12.9 306 15.9 101010 75
2006-06-19 07:36:46 51°17.922 2°41.771 13.4 27 15.9 101020 76
2006-06-19 07:36:52 51°17.934 2°41.744 12.9 308 15.9 101020 76
2006-06-19 07:36:56 51°17.941 2°41.726 12.4 22 15.9 101020 76
2006-06-19 07:37:01 51°17.951 2°41.704 12.7 304 15.9 101020 76
2006-06-19 07:37:06 51°17.961 2°41.682 13.8 20 15.9 101010 76
2006-06-19 07:37:12 51°17.973 2°41.656 13 308 15.9 101010 76
2006-06-19 07:37:17 51°17.983 2°41.634 13.2 24 15.9 101010 75
2006-06-19 07:37:21 51°17.991 2°41.617 12.9 281 15.9 101010 75
2006-06-19 07:37:26 51°18 2°41.595 12.5 22 15.8 101010 75
2006-06-19 07:37:32 51°18.012 2°41.569 13.2 307 15.8 101010 75
2006-06-19 07:37:36 51°18.02 2°41.551 13.2 25 15.9 101010 75
2006-06-19 07:37:42 51°18.032 2°41.525 13 307 15.9 101010 75
2006-06-19 07:37:46 51°18.039 2°41.507 12.5 25 15.8 101010 76
2006-06-19 07:37:52 51°18.051 2°41.481 12.4 304 15.8 101010 76
2006-06-19 07:37:56 51°18.058 2°41.463 13.1 21 15.9 101010 76
2006-06-19 07:38:01 51°18.068 2°41.44 12.7 307 15.9 101010 76
2006-06-19 07:38:06 51°18.078 2°41.419 12.7 22 15.9 101010 76
2006-06-19 07:38:11 51°18.087 2°41.397 13.5 308 15.9 101010 76
2006-06-19 07:38:16 51°18.097 2°41.375 13 27 15.8 101020 76
2006-06-19 07:38:21 51°18.106 2°41.352 12.7 307 15.8 101020 76
2006-06-19 07:38:26 51°18.116 2°41.33 12.8 25 15.8 101020 76
2006-06-19 07:38:30 51°18.123 2°41.313 12.7 307 15.8 101020 76
2006-06-19 07:38:36 51°18.134 2°41.286 13.6 26 15.9 101010 76
2006-06-19 07:38:42 51°18.146 2°41.259 13.1 301 15.9 101010 76
2006-06-19 07:38:46 51°18.153 2°41.242 13.3 25 15.9 101010 76
2006-06-19 07:38:52 51°18.165 2°41.216 12.4 306 15.9 101010 76
2006-06-19 07:38:56 51°18.172 2°41.198 13.5 27 15.9 101020 77
2006-06-19 07:39:01 51°18.182 2°41.176 12.8 301 15.9 101020 77
2006-06-19 07:39:06 51°18.192 2°41.155 13 30 15.8 101010 77
2006-06-19 07:39:10 51°18.199 2°41.137 12 305 15.8 101010 77
2006-06-19 07:39:16 51°18.21 2°41.111 12.3 26 15.8 101010 77
2006-06-19 07:39:20 51°18.218 2°41.093 12.7 279 15.8 101010 77
2006-06-19 07:39:26 51°18.229 2°41.066 12.8 25 15.9 101020 77
2006-06-19 07:39:31 51°18.238 2°41.044 12.4 307 15.9 101020 77
2006-06-19 07:39:36 51°18.247 2°41.023 13.2 22 15.8 101020 77
2006-06-19 07:39:41 51°18.257 2°41.001 13.8 305 15.8 101020 77
2006-06-19 07:39:46 51°18.266 2°40.979 13.1 24 15.9 101020 78
2006-06-19 07:39:52 51°18.278 2°40.953 12.3 308 15.9 101020 78
2006-06-19 07:39:57 51°18.287 2°40.932 14 21 15.9 101020 78
2006-06-19 07:40:01 51°18.295 2°40.915 13.2 310 15.9 101020 78
2006-06-19 07:40:06 51°18.304 2°40.893 14.3 22 15.8 101020 78
2006-06-19 07:40:10 51°18.312 2°40.876 13.1 304 15.8 101020 78
2006-06-19 07:40:17 51°18.325 2°40.846 13.5 26 15.9 101020 78
2006-06-19 07:40:21 51°18.333 2°40.829 12.8 304 15.9 101020 78
2006-06-19 07:40:26 51°18.342 2°40.808 14.3 27 15.8 101020 78
2006-06-19 07:40:30 51°18.349 2°40.791 13.7 300 15.8 101020 78
2006-06-19 07:40:36 51°18.36 2°40.764 13.5 24 15.8 101010 78
2006-06-19 07:40:42 51°18.371 2°40.738 13.4 306 15.8 101010 78
2006-06-19 07:40:46 51°18.378 2°40.72 13 25 15.8 101010 78
2006-06-19 07:40:51 51°18.387 2°40.698 13.6 310 15.8 101010 78
2006-06-19 07:40:56 51°18.396 2°40.676 13.2 23 15.8 101010 78
2006-06-19 07:41:01 51°18.406 2°40.655 14.4 307 15.8 101010 78
2006-06-19 07:41:06 51°18.416 2°40.634 13.5 21 15.8 101020 78
2006-06-19 07:41:12 51°18.429 2°40.609 13.3 301 15.8 101020 78
2006-06-19 07:41:16 51°18.437 2°40.592 13.5 22 15.8 101020 78
2006-06-19 07:41:21 51°18.447 2°40.571 12.2 282 15.8 101020 78
2006-06-19 07:41:26 51°18.456 2°40.55 12.5 23 15.8 101020 78
2006-06-19 07:41:32 51°18.469 2°40.525 13.9 306 15.8 101020 78
2006-06-19 07:41:36 51°18.476 2°40.508 13.4 24 15.8 101020 78
2006-06-19 07:41:41 51°18.486 2°40.487 14.8 307 15.8 101020 78
2006-06-19 07:41:46 51°18.496 2°40.466 13.8 22 15.8 101020 79
2006-06-19 07:41:50 51°18.504 2°40.45 14 309 15.8 101020 79
2006-06-19 07:41:56 51°18.516 2°40.425 13.8 19 15.8 101010 79
2006-06-19 07:42:02 51°18.528 2°40.4 14.3 305 15.8 101010 79
2006-06-19 07:42:06 51°18.537 2°40.384 14.1 24 15.8 101010 78
2006-06-19 07:42:10 51°18.545 2°40.367 13.2 309 15.8 101010 78
2006-06-19 07:42:16 51°18.557 2°40.343 13.5 19 15.8 101010 78
2006-06-19 07:42:21 51°18.567 2°40.322 13.6 308 15.8 101010 78
2006-06-19 07:42:26 51°18.577 2°40.301 13.6 20 15.8 101010 78
2006-06-19 07:42:30 51°18.585 2°40.284 13.4 308 15.8 101010 78
2006-06-19 07:42:37 51°18.6 2°40.255 12.7 20 15.8 101010 78
2006-06-19 07:42:41 51°18.608 2°40.239 13 305 15.8 101010 78
2006-06-19 07:42:46 51°18.618 2°40.218 12.4 28 15.8 101010 78
2006-06-19 07:42:50 51°18.627 2°40.201 13.7 308 15.8 101010 78
2006-06-19 07:42:56 51°18.639 2°40.175 12.1 26 15.8 101010 78
2006-06-19 07:43:02 51°18.652 2°40.15 13.2 308 15.8 101010 78
2006-06-19 07:43:06 51°18.66 2°40.133 13.4 20 15.8 101020 78
2006-06-19 07:43:11 51°18.669 2°40.111 12.5 307 15.8 101020 78
2006-06-19 07:43:16 51°18.678 2°40.089 14.5 20 15.8 101020 79
2006-06-19 07:43:21 51°18.687 2°40.067 14.1 285 15.8 101020 79
2006-06-19 07:43:26 51°18.697 2°40.045 14.4 26 15.8 101020 79
2006-06-19 07:43:32 51°18.709 2°40.019 12.5 301 15.8 101020 79
2006-06-19 07:43:36 51°18.717 2°40.002 13.8 28 15.8 101020 79
2006-06-19 07:43:42 51°18.73 2°39.977 13.5 307 15.8 101020 79
2006-06-19 07:43:46 51°18.738 2°39.96 13.2 28 15.8 101010 79
2006-06-19 07:43:52 51°18.751 2°39.934 12.7 303 15.8 101010 79
2006-06-19 07:43:56 51°18.759 2°39.917 14.5 23 15.8 101020 79
2006-06-19 07:44:01 51°18.769 2°39.895 13 304 15.8 101020 79
2006-06-19 07:44:06 51°18.779 2°39.874 13.9 25 15.8 101020 79
2006-06-19 07:44:12 51°18.791 2°39.847 13.5 302 15.8 101020 79
2006-06-19 07:44:16 51°18.799 2°39.83 13.7 22 15.8 101030 79
2006-06-19 07:44:21 51°18.809 2°39.808 14 281 15.8 101030 79
2006-06-19 07:44:26 51°18.819 2°39.786 14.1 20 15.8 101020 79
2006-06-19 07:44:31 51°18.829 2°39.764 14.4 309 15.8 101020 79
2006-06-19 07:44:36 51°18.839 2°39.742 12 27 15.8 101010 79
2006-06-19 07:44:41 51°18.849 2°39.72 14 309 15.8 101010 79
2006-06-19 07:44:46 51°18.858 2°39.698 13.6 22 15.7 101020 79
2006-06-19 07:44:51 51°18.868 2°39.675 14.8 306 15.7 101020 79
2006-06-19 07:44:56 51°18.878 2°39.653 14 24 15.8 101010 79
2006-06-19 07:45:02 51°18.89 2°39.626 13 305 15.8 101010 79
2006-06-19 07:45:06 51°18.898 2°39.609 13.9 23 15.8 101010 80
2006-06-19 07:45:10 51°18.906 2°39.591 14.6 307 15.8 101010 80
2006-06-19 07:45:16 51°18.917 2°39.564 13.7 23 15.8 101010 80
2006-06-19 07:45:21 51°18.927 2°39.542 14.8 283 15.8 101010 80
2006-06-19 07:45:26 51°18.937 2°39.519 15.7 23 15.7 101010 80
2006-06-19 07:45:32 51°18.949 2°39.493 14.5 307 15.7 101010 80
2006-06-19 07:45:36 51°18.957 2°39.476 13.9 22 15.7 101020 80
2006-06-19 07:45:41 51°18.968 2°39.453 15.1 307 15.7 101020 80
2006-06-19 07:45:46 51°18.978 2°39.432 16.1 26 15.7 101010 80
2006-06-19 07:45:51 51°18.988 2°39.409 14.8 302 15.7 101010 80
2006-06-19 07:45:56 51°18.998 2°39.387 15.2 26 15.7 101000 80
2006-06-19 07:46:01 51°19.008 2°39.365 14.7 304 15.7 101000 80
2006-06-19 07:46:06 51°19.017 2°39.343 14 24 15.7 101020 80
2006-06-19 07:46:12 51°19.029 2°39.315 14.4 307 15.7 101020 80
2006-06-19 07:46:16 51°19.036 2°39.297 15.4 24 15.7 101000 79
2006-06-19 07:46:21 51°19.045 2°39.275 14.8 304 15.7 101000 79
2006-06-19 07:46:26 51°19.055 2°39.252 15.2 25 15.7 101020 80
2006-06-19 07:46:30 51°19.062 2°39.234 14.2 306 15.7 101020 80
2006-06-19 07:46:36 51°19.074 2°39.208 13.3 22 15.7 101010 80
2006-06-19 07:46:41 51°19.084 2°39.185 13.9 306 15.7 101010 80
2006-06-19 07:46:46 51°19.094 2°39.163 14.3 23 15.7 101020 80
2006-06-19 07:46:52 51°19.105 2°39.136 14 309 15.7 101020 80
2006-06-19 07:46:57 51°19.115 2°39.114 13.7 25 15.7 101010 80
2006-06-19 07:47:02 51°19.124 2°39.091 13 308 15.7 101010 80
2006-06-19 07:47:05 51°19.129 2°39.078 14.6 20 15.7 101020 80
2006-06-19 07:47:10 51°19.139 2°39.055 14.5 302 15.7 101020 80
2006-06-19 07:47:16 51°19.15 2°39.028 14.2 22 15.7 101020 80
2006-06-19 07:47:22 51°19.161 2°39.001 14.9 282 15.7 101020 80
2006-06-19 07:47:26 51°19.168 2°38.983 15.2 25 15.7 101020 80
2006-06-19 07:47:32 51°19.179 2°38.956 14.3 303 15.7 101020 80
2006-06-19 07:47:36 51°19.186 2°38.938 13.9 26 15.7 101020 80
2006-06-19 07:47:40 51°19.194 2°38.919 13.6 308 15.7 101020 80
2006-06-19 07:47:46 51°19.205 2°38.893 15.8 22 15.7 101020 80
2006-06-19 07:47:50 51°19.213 2°38.875 15.2 304 15.7 101020 80
2006-06-19 07:47:57 51°19.227 2°38.844 13.5 22 15.7 101010 80
2006-06-19 07:48:02 51°19.237 2°38.822 13.8 306 15.7 101010 80
2006-06-19 07:48:06 51°19.246 2°38.805 14.8 25 15.7 101020 80
2006-06-19 07:48:10 51°19.254 2°38.787 14.9 305 15.7 101020 80
2006-06-19 07:48:16 51°19.266 2°38.76 15.8 27 15.7 101010 80
2006-06-19 07:48:21 51°19.276 2°38.738 14.7 283 15.7 101010 80
2006-06-19 07:48:26 51°19.286 2°38.715 14.7 24 15.7 101020 80
2006-06-19 07:48:32 51°19.298 2°38.688 13.5 306 15.7 101020 80
2006-06-19 07:48:36 51°19.306 2°38.67 14.9 21 15.7 101010 80
2006-06-19 07:48:41 51°19.316 2°38.648 14.3 307 15.7 101010 80
2006-06-19 07:48:46 51°19.326 2°38.625 14.1 21 15.7 101010 80
2006-06-19 07:48:52 51°19.339 2°38.598 14.6 307 15.7 101010 80
2006-06-19 07:48:56 51°19.347 2°38.58 15.9 25 15.7 101020 80
2006-06-19 07:49:02 51°19.359 2°38.553 14.6 306 15.7 101020 80
2006-06-19 07:49:06 51°19.366 2°38.535 14.2 21 15.6 101010 80
2006-06-19 07:49:10 51°19.374 2°38.517 13.5 308 15.6 101010 80
2006-06-19 07:49:16 51°19.386 2°38.49 13.6 20 15.7 101020 80
2006-06-19 07:49:21 51°19.395 2°38.467 13.9 308 15.7 101020 80
2006-06-19 07:49:26 51°19.405 2°38.444 13.6 25 15.7 101010 80
2006-06-19 07:49:31 51°19.414 2°38.421 14.8 307 15.7 101010 80
2006-06-19 07:49:36 51°19.424 2°38.399 14.2 22 15.7 101020 80
2006-06-19 07:49:41 51°19.434 2°38.376 14.2 303 15.7 101020 80
2006-06-19 07:49:46 51°19.443 2°38.353 13.9 26 15.7 101020 80
2006-06-19 07:49:52 51°19.454 2°38.326 13.6 304 15.7 101020 80
2006-06-19 07:49:56 51°19.462 2°38.308 14.8 24 15.7 101020 80
2006-06-19 07:50:01 51°19.472 2°38.285 14.3 304 15.7 101020 80
2006-06-19 07:50:06 51°19.481 2°38.263 14.5 26 15.7 101010 80
2006-06-19 07:50:10 51°19.488 2°38.245 14.8 305 15.7 101010 80
2006-06-19 07:50:16 51°19.5 2°38.218 14.8 23 15.7 101010 80
2006-06-19 07:50:20 51°19.507 2°38.2 13.4 306 15.7 101010 80
2006-06-19 07:50:26 51°19.518 2°38.173 13.5 24 15.7 101010 80
2006-06-19 07:50:31 51°19.528 2°38.15 14.1 303 15.7 101010 80
2006-06-19 07:50:36 51°19.537 2°38.128 14.6 25 15.7 101010 80
2006-06-19 07:50:42 51°19.549 2°38.101 14.5 307 15.7 101010 80
2006-06-19 07:50:46 51°19.557 2°38.084 15.5 22 15.7 101010 80
2006-06-19 07:50:52 51°19.568 2°38.057 14.2 308 15.7 101010 80
2006-06-19 07:50:56 51°19.576 2°38.04 12.6 22 15.7 101020 80
2006-06-19 07:51:01 51°19.586 2°38.018 13.9 310 15.7 101020 80
2006-06-19 07:51:06 51°19.597 2°37.997 13.3 21 15.7 101020 80
2006-06-19 07:51:10 51°19.605 2°37.979 14 302 15.7 101020 80
2006-06-19 07:51:17 51°19.619 2°37.949 13.4 21 15.7 101010 80
2006-06-19 07:51:21 51°19.627 2°37.932 15.7 307 15.7 101010 80
2006-06-19 07:51:26 51°19.637 2°37.911 14.6 26 15.7 101020 81
2006-06-19 07:51:30 51°19.645 2°37.893 15 308 15.7 101020 81
2006-06-19 07:51:36 51°19.657 2°37.867 14.6 21 15.7 101010 81
2006-06-19 07:51:42 51°19.668 2°37.841 16 306 15.7 101010 81
2006-06-19 07:51:46 51°19.676 2°37.824 15.6 27 15.7 101020 81
2006-06-19 07:51:51 51°19.687 2°37.803 15.3 304 15.7 101020 81
2006-06-19 07:51:56 51°19.697 2°37.782 16 24 15.6 101010 81
2006-06-19 07:52:02 51°19.709 2°37.755 14 305 15.6 101010 81
2006-06-19 07:52:06 51°19.717 2°37.738 14.9 23 15.6 101000 80
2006-06-19 07:52:12 51°19.728 2°37.712 14.3 302 15.6 101000 80
2006-06-19 07:52:16 51°19.736 2°37.695 15.3 27 15.6 101000 81
2006-06-19 07:52:22 51°19.748 2°37.668 14.1 280 15.6 101000 81
2006-06-19 07:52:26 51°19.756 2°37.651 14.5 25 15.6 101000 81
2006-06-19 07:52:32 51°19.768 2°37.625 13.6 309 15.6 101000 81
2006-06-19 07:52:36 51°19.776 2°37.608 15.5 24 15.6 101000 81
2006-06-19 07:52:41 51°19.786 2°37.588 15.4 308 15.6 101000 81
2006-06-19 07:52:46 51°19.796 2°37.569 16 20 15.6 101010 81
2006-06-19 07:52:52 51°19.807 2°37.548 14.5 303 15.6 101010 81
2006-06-19 07:52:56 51°19.813 2°37.534 14.8 23 15.6 101000 81
2006-06-19 07:53:01 51°19.822 2°37.519 14.7 307 15.6 101000 81
2006-06-19 07:53:06 51°19.83 2°37.505 14 23 15.6 101000 81
2006-06-19 07:53:12 51°19.838 2°37.489 13.8 301 15.6 101000 81
2006-06-19 07:53:16 51°19.844 2°37.479 14.3 24 15.6 101000 81
2006-06-19 07:53:22 51°19.852 2°37.464 13.9 305 15.6 101000 81
2006-06-19 07:53:26 51°19.857 2°37.455 13.3 23 15.6 101020 81
2006-06-19 07:53:32 51°19.864 2°37.443 13 304 15.6 101020 81
2006-06-19 07:53:36 51°19.868 2°37.435 11.8 27 15.6 101010 81
2006-06-19 07:53:42 51°19.875 2°37.423 13 303 15.6 101010 81
2006-06-19 07:53:46 51°19.879 2°37.415 12.1 25 15.6 101020 81
2006-06-19 07:53:51 51°19.884 2°37.406 12.2 304 15.6 101020 81
2006-06-19 07:53:56 51°19.89 2°37.397 12 25 15.6 101020 81
2006-06-19 07:54:01 51°19.895 2°37.389 10.8 304 15.6 101020 81
2006-06-19 07:54:06 51°19.9 2°37.381 11.2 23 15.6 101020 81
2006-06-19 07:54:10 51°19.904 2°37.375 10.8 306 15.6 101020 81
2006-06-19 07:54:16 51°19.91 2°37.366 11.3 24 15.6 101030 81
2006-06-19 07:54:21 51°19.915 2°37.359 14.4 280 15.6 101030 81
2006-06-19 07:54:26 51°19.92 2°37.352 13.7 25 15.6 101020 82
2006-06-19 07:54:31 51°19.925 2°37.346 13.1 308 15.6 101020 82
2006-06-19 07:54:36 51°19.929 2°37.339 12.8 25 15.6 101030 82
2006-06-19 07:54:42 51°19.935 2°37.332 13 306 15.6 101030 82
2006-06-19 07:54:46 51°19.939 2°37.326 10.9 25 15.6 101020 82
2006-06-19 07:54:50 51°19.942 2°37.322 11.5 304 15.6 101020 82
2006-06-19 07:54:56 51°19.948 2°37.314 11.9 23 15.6 101020 81
2006-06-19 07:55:01 51°19.952 2°37.308 10.9 308 15.6 101020 81
2006-06-19 07:55:06 51°19.956 2°37.302 10.9 27 15.6 101020 81
2006-06-19 07:55:12 51°19.961 2°37.294 11.6 306 15.6 101020 81
2006-06-19 07:55:16 51°19.965 2°37.29 11.6 26 15.6 101030 82
2006-06-19 07:55:21 51°19.969 2°37.284 13.5 308 15.6 101030 82
2006-06-19 07:55:26 51°19.973 2°37.278 13.3 27 15.6 101030 82
2006-06-19 07:55:32 51°19.978 2°37.271 12 304 15.6 101030 82
2006-06-19 07:55:36 51°19.981 2°37.267 11.8 24 15.6 101030 82
2006-06-19 07:55:41 51°19.985 2°37.261 12.9 303 15.6 101030 82
2006-06-19 07:55:46 51°19.989 2°37.256 13.1 26 15.6 101030 82
2006-06-19 07:55:52 51°19.993 2°37.249 13.1 303 15.6 101030 82
2006-06-19 07:55:57 51°19.997 2°37.244 13.2 21 15.6 101030 82
2006-06-19 07:56:02 51°20 2°37.238 12.4 304 15.6 101030 82
2006-06-19 07:56:06 51°20.003 2°37.234 12.3 26 15.6 101020 82
2006-06-19 07:56:11 51°20.007 2°37.228 12 309 15.6 101020 82
2006-06-19 07:56:17 51°20.011 2°37.222 12.6 24 15.6 101020 82
2006-06-19 07:56:22 51°20.015 2°37.217 12.8 281 15.6 101020 82
2006-06-19 07:56:26 51°20.018 2°37.212 12.6 24 15.6 101020 82
2006-06-19 07:56:32 51°20.022 2°37.206 11.5 308 15.6 101020 82
2006-06-19 07:56:36 51°20.026 2°37.202 11.5 19 15.6 101020 82
2006-06-19 07:56:42 51°20.03 2°37.196 11.7 307 15.6 101020 82
2006-06-19 07:56:47 51°20.034 2°37.19 11.1 19 15.5 101020 82
2006-06-19 07:56:52 51°20.037 2°37.185 9.8 300 15.5 101020 82
2006-06-19 07:56:56 51°20.04 2°37.18 11.1 27 15.5 101030 82
2006-06-19 07:57:02 51°20.044 2°37.173 11.2 307 15.5 101030 82
2006-06-19 07:57:07 51°20.048 2°37.167 10.4 26 15.6 101030 82
2006-06-19 07:57:12 51°20.051 2°37.16 11.4 309 15.6 101030 82
2006-06-19 07:57:16 51°20.053 2°37.155 11.7 25 15.6 101030 82
2006-06-19 07:57:22 51°20.057 2°37.146 11.1 306 15.6 101030 82
2006-06-19 07:57:26 51°20.059 2°37.14 11.1 26 15.6 101030 82
2006-06-19 07:57:32 51°20.062 2°37.131 11.6 308 15.6 101030 82
2006-06-19 07:57:36 51°20.064 2°37.125 11.4 25 15.6 101030 82
2006-06-19 07:57:42 51°20.067 2°37.115 11.5 306 15.6 101030 82
2006-06-19 07:57:46 51°20.068 2°37.108 11.2 26 15.6 101030 82
2006-06-19 07:57:52 51°20.07 2°37.098 11.9 305 15.6 101030 82
2006-06-19 07:57:56 51°20.072 2°37.091 12 21 15.6 101030 82
2006-06-19 07:58:02 51°20.074 2°37.081 12.3 303 15.6 101030 82
2006-06-19 07:58:06 51°20.075 2°37.074 11.1 21 15.6 101020 82
2006-06-19 07:58:11 51°20.076 2°37.065 11.6 306 15.6 101020 82
2006-06-19 07:58:16 51°20.078 2°37.056 11.1 315 15.6 101020 82
2006-06-19 07:58:21 51°20.079 2°37.047 10.4 284 15.6 101020 82
2006-06-19 07:58:26 51°20.08 2°37.038 12.4 317 15.6 101020 82
2006-06-19 07:58:32 51°20.082 2°37.027 12.5 308 15.6 101020 82
2006-06-19 07:58:36 51°20.082 2°37.02 11.9 320 15.6 101020 82
2006-06-19 07:58:42 51°20.083 2°37.009 12.6 305 15.6 101020 82
2006-06-19 07:58:46 51°20.083 2°37.002 13.2 321 15.6 101030 83
2006-06-19 07:58:52 51°20.083 2°36.991 12.5 305 15.6 101030 83
2006-06-19 07:58:56 51°20.083 2°36.984 12.6 323 15.6 101020 83
2006-06-19 07:59:02 51°20.083 2°36.974 12.2 302 15.6 101020 83
2006-06-19 07:59:06 51°20.082 2°36.967 11.3 323 15.6 101030 83
2006-06-19 07:59:12 51°20.081 2°36.958 11.1 306 15.6 101030 83
2006-06-19 07:59:16 51°20.081 2°36.952 10.8 325 15.6 101030 82
2006-06-19 07:59:21 51°20.08 2°36.947 11.4 301 15.6 101030 82
2006-06-19 07:59:26 51°20.081 2°36.944 10.6 321 15.5 101030 82
2006-06-19 07:59:32 51°20.081 2°36.942 10.3 305 15.5 101030 82
2006-06-19 07:59:36 51°20.082 2°36.942 10.4 320 15.5 101030 82
2006-06-19 07:59:41 51°20.083 2°36.943 10.6 303 15.5 101030 82
2006-06-19 07:59:46 51°20.085 2°36.946 10.3 317 15.5 101030 83
2006-06-19 07:59:52 51°20.087 2°36.95 10.1 303 15.5 101030 83
2006-06-19 07:59:56 51°20.088 2°36.952 9.7 317 15.6 101040 82
2006-06-19 08:00:01 51°20.09 2°36.955 9.2 304 15.6 101040 82
2006-06-19 08:00:06 51°20.091 2°36.958 9.4 24 15.5 101040 83